Location: Caracas
(10.5033°N, 66.8422°W)
Time: 18:29:24
(UTC-04:00)

Vanguard 2 - Visible Passes

Search period start: 23 November 2017 00:00
Search period end: 03 December 2017 00:00
Orbit: 553 x 2939 km, 32.9° (Epoch: 23 November)

Date Brightness Start Highest point End Pass type
(mag) Time Alt. Az. Time Alt. Az. Time Alt. Az.
23 Nov 11.2 02:04:13 22° NE 02:04:13 22° NE 02:10:38 10° ENE visible
23 Nov 10.2 04:05:39 42° NNW 04:11:28 62° NNE 04:29:06 10° ESE visible
23 Nov 7.1 19:38:58 10° WSW 19:42:52 64° NNW 19:42:52 64° NNW visible
24 Nov 10.9 02:21:28 29° NE 02:21:28 29° NE 02:30:50 10° E visible
24 Nov 10.1 04:22:54 40° NW 04:29:55 75° NNE 04:48:01 10° ESE visible
24 Nov 8.5 19:57:28 10° W 20:00:11 30° NW 20:00:11 30° NW visible
25 Nov 10.6 02:38:43 38° NE 02:38:43 38° NE 02:50:46 10° E visible
25 Nov 10.1 04:40:10 35° WNW 04:48:20 89° SW 05:06:33 10° SE visible
25 Nov 9.5 20:16:24 10° WNW 20:17:28 15° WNW 20:17:28 15° WNW visible
26 Nov 10.2 02:55:59 50° NE 02:55:59 50° NE 03:10:20 10° ESE visible
26 Nov 10.2 04:57:26 29° WNW 05:06:45 73° SW 05:24:48 10° SE visible
26 Nov 6.8 18:24:58 10° WSW 18:29:09 89° N 18:33:10 10° ENE visible
27 Nov 9.9 03:13:15 65° NE 03:13:15 65° NE 03:29:32 10° ESE visible
27 Nov 10.4 05:14:42 22° WNW 05:25:14 58° SW 05:42:45 10° SE visible
27 Nov 7.7 18:43:21 10° WSW 18:47:15 43° NNW 18:50:35 13° NE visible
28 Nov 11.5 01:29:04 15° E 01:29:04 15° E 01:31:18 10° E visible
28 Nov 9.6 03:30:30 80° N 03:31:05 81° NE 03:48:21 10° ESE visible
28 Nov 10.7 05:31:56 15° W 05:43:48 45° SW 06:00:25 10° SSE visible
28 Nov 8.6 19:02:11 10° W 19:05:27 23° NNW 19:07:50 14° NNE visible
29 Nov 11.2 01:46:18 22° E 01:46:18 22° E 01:51:09 10° E visible
29 Nov 9.6 03:47:44 73° W 03:49:27 81° SW 04:06:49 10° SE visible
29 Nov 11.0 05:49:39 10° W 06:02:31 35° SSW 06:17:49 10° SSE visible
29 Nov 9.1 19:21:42 10° NW 19:23:47 14° NNW 19:25:05 12° N visible
30 Nov 10.9 02:03:31 30° E 02:03:31 30° E 02:10:36 10° ESE visible
30 Nov 9.7 04:04:57 55° WSW 04:07:53 64° SW 04:24:58 10° SE visible
01 Dec 10.5 02:20:42 39° ESE 02:20:42 39° ESE 02:29:39 10° ESE visible
01 Dec 10.0 04:22:08 40° WSW 04:26:26 49° SSW 04:42:48 10° SE visible
02 Dec 10.2 02:37:52 48° ESE 02:37:52 48° ESE 02:48:21 10° SE visible
02 Dec 10.4 04:39:18 28° WSW 04:45:08 38° SSW 05:00:22 10° SSE visible
